Time,TemperatureF,DewpointF,PressureIn,WindDirection,WindDirectionDegrees,WindSpeedMPH,WindSpeedGustMPH,Humidity,HourlyPrecipIn,Conditions,Clouds,dailyrainin,SoftwareType,DateUTC
2013-03-30 00:03:00,46.0,34.0,-100.00,SSE,155,3.0,6.0,61,0.00,,,0.00,,2013-03-30 00:03:00,
2013-03-30 00:12:00,46.0,34.0,-100.00,SSE,160,3.0,7.0,61,0.00,,,0.00,,2013-03-30 00:12:00,
2013-03-30 00:22:00,45.0,34.0,-100.00,SSE,160,4.0,8.0,64,0.00,,,0.00,,2013-03-30 00:22:00,
2013-03-30 00:32:00,45.0,34.0,-100.00,SSE,165,4.0,7.0,65,0.00,,,0.00,,2013-03-30 00:32:00,
2013-03-30 00:42:00,45.0,36.0,-100.00,SE,145,5.0,8.0,67,0.00,,,0.00,,2013-03-30 00:42:00,
2013-03-30 00:52:00,44.0,36.0,-100.00,SSE,155,4.0,8.0,68,0.00,,,0.00,,2013-03-30 00:52:00,
2013-03-30 01:02:00,44.0,36.0,-100.00,SSE,150,4.0,8.0,69,0.00,,,0.00,,2013-03-30 01:02:00,
2013-03-30 01:12:00,44.0,36.0,-100.00,SSE,160,3.0,8.0,71,0.00,,,0.00,,2013-03-30 01:12:00,
2013-03-30 01:22:00,44.0,36.0,-100.00,SSE,165,4.0,6.0,70,0.00,,,0.00,,2013-03-30 01:22:00,
2013-03-30 01:32:00,44.0,36.0,-100.00,SE,135,4.0,7.0,71,0.00,,,0.00,,2013-03-30 01:32:00,
2013-03-30 01:42:00,44.0,36.0,-100.00,SSE,150,4.0,7.0,71,0.00,,,0.00,,2013-03-30 01:42:00,
2013-03-30 01:52:00,44.0,36.0,-100.00,SSE,160,3.0,8.0,71,0.00,,,0.00,,2013-03-30 01:52:00,
2013-03-30 02:02:00,43.0,36.0,-100.00,SSE,155,4.0,7.0,72,0.00,,,0.00,,2013-03-30 02:02:00,
2013-03-30 02:12:00,44.0,36.0,-100.00,SSE,160,5.0,7.0,72,0.00,,,0.00,,2013-03-30 02:12:00,
2013-03-30 02:22:00,43.0,36.0,-100.00,SSE,165,4.0,7.0,72,0.00,,,0.00,,2013-03-30 02:22:00,
2013-03-30 02:32:00,43.0,36.0,-100.00,South,170,5.0,9.0,72,0.00,,,0.00,,2013-03-30 02:32:00,
2013-03-30 02:42:00,43.0,36.0,-100.00,South,180,4.0,6.0,74,0.00,,,0.00,,2013-03-30 02:42:00,
2013-03-30 02:52:00,43.0,36.0,-100.00,South,175,4.0,7.0,75,0.00,,,0.00,,2013-03-30 02:52:00,
2013-03-30 03:02:00,42.0,36.0,-100.00,South,170,4.0,7.0,77,0.00,,,0.00,,2013-03-30 03:02:00,
2013-03-30 03:12:00,42.0,37.0,-100.00,SSE,165,2.0,7.0,79,0.00,,,0.00,,2013-03-30 03:12:00,
2013-03-30 03:22:00,42.0,37.0,-100.00,SE,140,4.0,7.0,83,0.00,,,0.00,,2013-03-30 03:22:00,
2013-03-30 03:33:00,42.0,37.0,-100.00,SE,130,2.0,6.0,83,0.00,,,0.00,,2013-03-30 03:33:00,
2013-03-30 03:43:00,42.0,37.0,-100.00,ESE,120,1.0,7.0,83,0.00,,,0.00,,2013-03-30 03:43:00,
2013-03-30 03:52:00,41.0,37.0,-100.00,SE,145,2.0,5.0,84,0.00,,,0.00,,2013-03-30 03:52:00,
2013-03-30 04:02:00,41.0,37.0,-100.00,SSE,160,1.0,4.0,84,0.00,,,0.00,,2013-03-30 04:02:00,
2013-03-30 04:12:00,41.0,37.0,-100.00,SSE,155,2.0,4.0,84,0.00,,,0.00,,2013-03-30 04:12:00,
2013-03-30 04:23:00,41.0,37.0,-100.00,SE,125,2.0,7.0,84,0.00,,,0.00,,2013-03-30 04:23:00,
2013-03-30 04:32:00,41.0,37.0,-100.00,East,80,1.0,3.0,85,0.00,,,0.00,,2013-03-30 04:32:00,
2013-03-30 04:42:00,40.0,37.0,-100.00,SE,135,2.0,4.0,86,0.00,,,0.00,,2013-03-30 04:42:00,
2013-03-30 04:52:00,40.0,36.0,-100.00,ESE,110,1.0,3.0,86,0.00,,,0.00,,2013-03-30 04:52:00,
2013-03-30 05:02:00,39.0,36.0,-100.00,ESE,110,1.0,4.0,87,0.00,,,0.00,,2013-03-30 05:02:00,
2013-03-30 05:12:00,40.0,37.0,-100.00,SE,130,3.0,4.0,88,0.00,,,0.00,,2013-03-30 05:12:00,
2013-03-30 05:22:00,40.0,37.0,-100.00,SSE,160,6.0,9.0,87,0.00,,,0.00,,2013-03-30 05:22:00,
2013-03-30 05:32:00,41.0,37.0,-100.00,SE,140,6.0,11.0,85,0.00,,,0.00,,2013-03-30 05:32:00,
2013-03-30 05:42:00,41.0,37.0,-100.00,SSE,160,6.0,11.0,84,0.00,,,0.00,,2013-03-30 05:42:00,
2013-03-30 05:52:00,41.0,37.0,-100.00,SE,140,6.0,10.0,84,0.00,,,0.00,,2013-03-30 05:52:00,
2013-03-30 06:02:00,41.0,37.0,-100.00,SE,145,7.0,14.0,84,0.00,,,0.00,,2013-03-30 06:02:00,
2013-03-30 06:11:00,42.0,37.0,-100.00,SSE,165,6.0,16.0,82,0.00,,,0.00,,2013-03-30 06:11:00,
2013-03-30 06:22:00,42.0,37.0,-100.00,SSE,165,8.0,11.0,80,0.00,,,0.00,,2013-03-30 06:22:00,
2013-03-30 06:32:00,42.0,36.0,-100.00,South,170,8.0,17.0,79,0.00,,,0.00,,2013-03-30 06:32:00,
2013-03-30 06:42:00,42.0,37.0,-100.00,South,175,8.0,14.0,79,0.00,,,0.00,,2013-03-30 06:42:00,
2013-03-30 06:52:00,42.0,36.0,-100.00,South,175,9.0,15.0,78,0.00,,,0.00,,2013-03-30 06:52:00,
2013-03-30 07:02:00,42.0,36.0,-100.00,SSE,155,6.0,14.0,78,0.00,,,0.00,,2013-03-30 07:02:00,
2013-03-30 07:12:00,42.0,36.0,-100.00,South,180,9.0,14.0,77,0.00,,,0.00,,2013-03-30 07:12:00,
2013-03-30 07:22:00,42.0,36.0,-100.00,South,190,12.0,16.0,77,0.00,,,0.00,,2013-03-30 07:22:00,
2013-03-30 07:32:00,41.0,36.0,-100.00,South,190,11.0,15.0,78,0.00,,,0.00,,2013-03-30 07:32:00,
2013-03-30 07:42:00,41.0,36.0,-100.00,SSW,200,9.0,14.0,79,0.00,,,0.00,,2013-03-30 07:42:00,
2013-03-30 07:52:00,42.0,36.0,-100.00,South,185,11.0,15.0,77,0.00,,,0.00,,2013-03-30 07:52:00,
2013-03-30 08:02:00,42.0,36.0,-100.00,SSW,195,13.0,17.0,81,0.00,,,0.00,,2013-03-30 08:02:00,
2013-03-30 08:12:00,40.0,36.0,-100.00,South,185,9.0,16.0,85,0.00,,,0.00,,2013-03-30 08:12:00,
2013-03-30 08:21:00,40.0,37.0,-100.00,South,185,8.0,12.0,87,0.00,,,0.00,,2013-03-30 08:21:00,
2013-03-30 08:32:00,40.0,37.0,-100.00,South,170,7.0,12.0,88,0.00,,,0.00,,2013-03-30 08:32:00,
2013-03-30 08:42:00,40.0,37.0,-100.00,South,190,2.0,9.0,89,0.00,,,0.00,,2013-03-30 08:42:00,
2013-03-30 08:52:00,40.0,37.0,-100.00,SSE,160,6.0,9.0,91,0.00,,,0.00,,2013-03-30 08:52:00,
2013-03-30 09:02:00,40.0,37.0,-100.00,SW,235,4.0,9.0,91,0.00,,,0.00,,2013-03-30 09:02:00,
2013-03-30 09:12:00,39.0,37.0,-100.00,South,185,4.0,6.0,92,0.00,,,0.00,,2013-03-30 09:12:00,
2013-03-30 09:22:00,39.0,37.0,-100.00,South,185,7.0,11.0,92,0.00,,,0.00,,2013-03-30 09:22:00,
2013-03-30 09:33:00,40.0,37.0,-100.00,South,190,7.0,12.0,92,0.00,,,0.00,,2013-03-30 09:33:00,
2013-03-30 09:42:00,39.0,37.0,-100.00,South,180,6.0,8.0,91,0.00,,,0.00,,2013-03-30 09:42:00,
2013-03-30 09:53:00,40.0,37.0,-100.00,South,170,7.0,11.0,90,0.00,,,0.00,,2013-03-30 09:53:00,
2013-03-30 10:02:00,39.0,37.0,-100.00,South,190,8.0,11.0,90,0.00,,,0.00,,2013-03-30 10:02:00,
2013-03-30 10:12:00,39.0,37.0,-100.00,South,190,8.0,11.0,91,0.00,,,0.00,,2013-03-30 10:12:00,
2013-03-30 10:23:00,39.0,37.0,-100.00,South,185,9.0,12.0,91,0.00,,,0.00,,2013-03-30 10:23:00,
2013-03-30 10:32:00,39.0,37.0,-100.00,South,190,9.0,12.0,91,0.00,,,0.00,,2013-03-30 10:32:00,
2013-03-30 10:42:00,39.0,37.0,-100.00,South,190,10.0,12.0,92,0.00,,,0.00,,2013-03-30 10:42:00,
2013-03-30 10:52:00,38.0,36.0,-100.00,South,190,9.0,12.0,92,0.00,,,0.00,,2013-03-30 10:52:00,
2013-03-30 11:03:00,39.0,37.0,-100.00,SSW,205,7.0,14.0,92,0.00,,,0.00,,2013-03-30 11:03:00,
2013-03-30 11:12:00,38.0,37.0,-100.00,SSW,195,10.0,13.0,92,0.00,,,0.00,,2013-03-30 11:12:00,
2013-03-30 11:22:00,39.0,37.0,-100.00,SSW,195,10.0,13.0,93,0.00,,,0.00,,2013-03-30 11:22:00,
2013-03-30 11:32:00,38.0,37.0,-100.00,SSW,200,11.0,16.0,94,0.00,,,0.00,,2013-03-30 11:32:00,
2013-03-30 11:42:00,38.0,37.0,-100.00,SSW,200,10.0,14.0,93,0.00,,,0.00,,2013-03-30 11:42:00,
2013-03-30 11:52:00,38.0,37.0,-100.00,SSW,195,11.0,13.0,93,0.00,,,0.00,,2013-03-30 11:52:00,
2013-03-30 12:02:00,39.0,37.0,-100.00,SSW,200,7.0,11.0,93,0.00,,,0.00,,2013-03-30 12:02:00,
2013-03-30 12:12:00,38.0,37.0,-100.00,SSW,195,6.0,11.0,93,0.00,,,0.00,,2013-03-30 12:12:00,
2013-03-30 12:22:00,38.0,37.0,-100.00,SSW,205,6.0,9.0,93,0.00,,,0.00,,2013-03-30 12:22:00,
2013-03-30 12:32:00,38.0,36.0,-100.00,SW,225,4.0,9.0,93,0.00,,,0.00,,2013-03-30 12:32:00,
2013-03-30 12:42:00,38.0,36.0,-100.00,SW,225,3.0,6.0,93,0.00,,,0.00,,2013-03-30 12:42:00,
2013-03-30 12:52:00,37.0,36.0,-100.00,WSW,250,2.0,5.0,94,0.00,,,0.00,,2013-03-30 12:52:00,
2013-03-30 13:02:00,37.0,36.0,-100.00,WNW,300,1.0,2.0,94,0.00,,,0.00,,2013-03-30 13:02:00,
2013-03-30 13:12:00,38.0,36.0,-100.00,West,280,0.0,1.0,94,0.00,,,0.00,,2013-03-30 13:12:00,
2013-03-30 13:22:00,37.0,36.0,-100.00,NNW,345,1.0,2.0,94,0.00,,,0.00,,2013-03-30 13:22:00,
2013-03-30 13:32:00,37.0,36.0,-100.00,NNW,340,0.0,1.0,94,0.00,,,0.00,,2013-03-30 13:32:00,
2013-03-30 13:42:00,38.0,37.0,-100.00,NNW,345,0.0,1.0,94,0.00,,,0.00,,2013-03-30 13:42:00,
2013-03-30 13:52:00,38.0,37.0,-100.00,North,5,1.0,3.0,95,0.00,,,0.00,,2013-03-30 13:52:00,
2013-03-30 14:02:00,39.0,37.0,-100.00,NNW,345,1.0,3.0,94,0.00,,,0.00,,2013-03-30 14:02:00,
2013-03-30 14:11:00,39.0,37.0,-100.00,North,0,0.0,2.0,94,0.00,,,0.00,,2013-03-30 14:11:00,
2013-03-30 14:22:00,40.0,39.0,-100.00,NW,320,0.0,2.0,93,0.00,,,0.00,,2013-03-30 14:22:00,
2013-03-30 14:32:00,41.0,39.0,-100.00,West,265,1.0,5.0,92,0.00,,,0.00,,2013-03-30 14:32:00,
2013-03-30 14:42:00,41.0,39.0,-100.00,NNW,340,2.0,5.0,91,0.00,,,0.00,,2013-03-30 14:42:00,
2013-03-30 14:52:00,42.0,39.0,-100.00,WNW,300,2.0,5.0,89,0.00,,,0.00,,2013-03-30 14:52:00,
2013-03-30 15:02:00,42.0,39.0,-100.00,NW,315,2.0,6.0,87,0.00,,,0.00,,2013-03-30 15:02:00,
2013-03-30 15:12:00,44.0,39.0,-100.00,WNW,300,1.0,5.0,84,0.00,,,0.00,,2013-03-30 15:12:00,
2013-03-30 15:22:00,44.0,39.0,-100.00,NW,325,4.0,7.0,82,0.00,,,0.00,,2013-03-30 15:22:00,
2013-03-30 15:33:00,44.0,39.0,-100.00,NW,325,3.0,7.0,81,0.00,,,0.00,,2013-03-30 15:33:00,
2013-03-30 15:43:00,44.0,39.0,-100.00,NW,320,4.0,7.0,80,0.00,,,0.00,,2013-03-30 15:43:00,
2013-03-30 15:52:00,45.0,39.0,-100.00,NNW,340,3.0,9.0,79,0.00,,,0.00,,2013-03-30 15:52:00,
2013-03-30 16:03:00,46.0,39.0,-100.00,NW,320,2.0,7.0,77,0.00,,,0.00,,2013-03-30 16:03:00,
2013-03-30 16:13:00,46.0,39.0,-100.00,NW,305,2.0,7.0,77,0.00,,,0.00,,2013-03-30 16:13:00,
2013-03-30 16:23:00,47.0,39.0,-100.00,NW,310,4.0,7.0,75,0.00,,,0.00,,2013-03-30 16:23:00,
2013-03-30 16:33:00,47.0,39.0,-100.00,NNW,330,5.0,9.0,74,0.00,,,0.00,,2013-03-30 16:33:00,
2013-03-30 16:43:00,47.0,39.0,-100.00,NNW,335,4.0,9.0,74,0.00,,,0.00,,2013-03-30 16:43:00,
2013-03-30 16:52:00,46.0,39.0,-100.00,North,0,3.0,10.0,75,0.00,,,0.00,,2013-03-30 16:52:00,
2013-03-30 17:02:00,47.0,39.0,-100.00,WNW,295,4.0,9.0,74,0.00,,,0.00,,2013-03-30 17:02:00,
2013-03-30 17:13:00,47.0,39.0,-100.00,NW,310,4.0,8.0,73,0.00,,,0.00,,2013-03-30 17:13:00,
2013-03-30 17:22:00,47.0,39.0,-100.00,WNW,295,4.0,8.0,73,0.00,,,0.00,,2013-03-30 17:22:00,
2013-03-30 17:32:00,48.0,39.0,-100.00,NNW,330,4.0,7.0,71,0.00,,,0.00,,2013-03-30 17:32:00,
2013-03-30 17:42:00,48.0,39.0,-100.00,NNW,335,5.0,9.0,71,0.00,,,0.00,,2013-03-30 17:42:00,
2013-03-30 17:52:00,49.0,39.0,-100.00,NNW,335,2.0,9.0,70,0.00,,,0.00,,2013-03-30 17:52:00,
2013-03-30 18:02:00,49.0,39.0,-100.00,NW,310,2.0,6.0,68,0.00,,,0.00,,2013-03-30 18:02:00,
2013-03-30 18:12:00,50.0,39.0,-100.00,NW,305,2.0,5.0,67,0.00,,,0.00,,2013-03-30 18:12:00,
2013-03-30 18:22:00,49.0,39.0,-100.00,NNE,25,3.0,9.0,69,0.00,,,0.00,,2013-03-30 18:22:00,
2013-03-30 18:32:00,50.0,39.0,-100.00,WNW,295,5.0,7.0,67,0.00,,,0.00,,2013-03-30 18:32:00,
2013-03-30 18:42:00,49.0,39.0,-100.00,West,265,2.0,9.0,68,0.00,,,0.00,,2013-03-30 18:42:00,
2013-03-30 18:52:00,51.0,39.0,-100.00,West,260,2.0,7.0,65,0.00,,,0.00,,2013-03-30 18:52:00,
2013-03-30 19:03:00,50.0,39.0,-100.00,NW,305,1.0,7.0,64,0.00,,,0.00,,2013-03-30 19:03:00,
2013-03-30 19:13:00,50.0,39.0,-100.00,North,350,3.0,9.0,64,0.00,,,0.00,,2013-03-30 19:13:00,
2013-03-30 19:22:00,51.0,39.0,-100.00,WNW,285,6.0,8.0,63,0.00,,,0.00,,2013-03-30 19:22:00,
2013-03-30 19:32:00,51.0,39.0,-100.00,WNW,285,3.0,9.0,62,0.00,,,0.00,,2013-03-30 19:32:00,
2013-03-30 19:42:00,51.0,39.0,-100.00,NW,305,2.0,6.0,62,0.00,,,0.00,,2013-03-30 19:42:00,
2013-03-30 19:52:00,51.0,37.0,-100.00,West,280,4.0,8.0,62,0.00,,,0.00,,2013-03-30 19:52:00,
2013-03-30 20:02:00,50.0,37.0,-100.00,WNW,300,2.0,9.0,63,0.00,,,0.00,,2013-03-30 20:02:00,
2013-03-30 20:12:00,50.0,37.0,-100.00,West,275,1.0,9.0,62,0.00,,,0.00,,2013-03-30 20:12:00,
2013-03-30 20:22:00,49.0,37.0,-100.00,SW,230,3.0,8.0,63,0.00,,,0.00,,2013-03-30 20:22:00,
2013-03-30 20:32:00,49.0,37.0,-100.00,West,270,4.0,8.0,64,0.00,,,0.00,,2013-03-30 20:32:00,
2013-03-30 20:42:00,48.0,37.0,-100.00,WSW,250,4.0,7.0,65,0.00,,,0.00,,2013-03-30 20:42:00,
2013-03-30 20:52:00,48.0,37.0,-100.00,West,260,4.0,7.0,63,0.00,,,0.00,,2013-03-30 20:52:00,
2013-03-30 21:02:00,48.0,36.0,-100.00,West,260,4.0,8.0,62,0.00,,,0.00,,2013-03-30 21:02:00,
2013-03-30 21:12:00,48.0,36.0,-100.00,West,265,4.0,7.0,63,0.00,,,0.00,,2013-03-30 21:12:00,
2013-03-30 21:22:00,48.0,36.0,-100.00,WSW,255,4.0,9.0,63,0.00,,,0.00,,2013-03-30 21:22:00,
2013-03-30 21:33:00,49.0,36.0,-100.00,West,280,2.0,8.0,60,0.00,,,0.00,,2013-03-30 21:33:00,
2013-03-30 21:43:00,48.0,36.0,-100.00,West,270,3.0,7.0,62,0.00,,,0.00,,2013-03-30 21:43:00,
2013-03-30 21:52:00,48.0,36.0,-100.00,West,265,4.0,7.0,60,0.00,,,0.00,,2013-03-30 21:52:00,
2013-03-30 22:02:00,48.0,36.0,-100.00,WSW,255,4.0,9.0,59,0.00,,,0.00,,2013-03-30 22:02:00,
2013-03-30 22:13:00,49.0,36.0,-100.00,WNW,285,4.0,9.0,59,0.00,,,0.00,,2013-03-30 22:13:00,
2013-03-30 22:23:00,47.0,36.0,-100.00,West,260,4.0,7.0,62,0.00,,,0.00,,2013-03-30 22:23:00,
2013-03-30 22:32:00,47.0,36.0,-100.00,West,270,4.0,7.0,62,0.00,,,0.00,,2013-03-30 22:32:00,
2013-03-30 22:43:00,47.0,36.0,-100.00,West,265,4.0,7.0,63,0.00,,,0.00,,2013-03-30 22:43:00,
2013-03-30 22:53:00,46.0,36.0,-100.00,WSW,250,4.0,11.0,64,0.00,,,0.00,,2013-03-30 22:53:00,
2013-03-30 23:02:00,46.0,36.0,-100.00,West,275,6.0,9.0,63,0.00,,,0.00,,2013-03-30 23:02:00,
2013-03-30 23:12:00,46.0,36.0,-100.00,West,265,4.0,9.0,64,0.00,,,0.00,,2013-03-30 23:12:00,
2013-03-30 23:22:00,46.0,36.0,-100.00,WSW,255,5.0,9.0,64,0.00,,,0.00,,2013-03-30 23:22:00,
2013-03-30 23:32:00,46.0,36.0,-100.00,West,260,4.0,9.0,64,0.00,,,0.00,,2013-03-30 23:32:00,
2013-03-30 23:42:00,45.0,34.0,-100.00,West,260,4.0,7.0,65,0.00,,,0.00,,2013-03-30 23:42:00,
2013-03-30 23:52:00,45.0,34.0,-100.00,WSW,245,3.0,7.0,65,0.00,,,0.00,,2013-03-30 23:52:00,